| time (UTC) | temp F | wind direction | speed MPH | gust MPH | rain 1hr in | rain 24hr in | rain mn in | humidity % | barometer mb |
| 20260506171022 | 66 | 323 | 2.0 | 5.0 | 0.00 | 0.00 | 0.00 | 65 | 1020.5 |
| 20260506170520 | 66 | 24 | 1.0 | 6.0 | 0.00 | 0.00 | 0.00 | 66 | 1020.5 |
| 20260506170034 | 65 | 244 | 1.0 | 6.0 | 0.00 | 0.00 | 0.00 | 68 | 1020.5 |
| 20260506165521 | 65 | 263 | 2.0 | 6.0 | 0.00 | 0.00 | 0.00 | 67 | 1020.4 |
| 20260506165019 | 65 | 229 | 2.0 | 6.0 | 0.00 | 0.00 | 0.00 | 67 | 1020.4 |
| 20260506164538 | 65 | 270 | 2.0 | 6.0 | 0.00 | 0.00 | 0.00 | 67 | 1020.5 |
| 20260506164022 | 65 | 206 | 3.0 | 6.0 | 0.00 | 0.00 | 0.00 | 67 | 1020.4 |
| 20260506163521 | 65 | 258 | 2.0 | 6.0 | 0.00 | 0.00 | 0.00 | 68 | 1020.5 |
| 20260506163100 | 64 | 260 | 1.0 | 8.0 | 0.00 | 0.00 | 0.00 | 70 | 1020.5 |
| 20260506162525 | 63 | 206 | 2.0 | 8.0 | 0.00 | 0.00 | 0.00 | 70 | 1020.4 |
| 20260506162022 | 63 | 197 | 2.0 | 6.0 | 0.00 | 0.00 | 0.00 | 72 | 1020.5 |
| 20260506161535 | 62 | 296 | 2.0 | 8.0 | 0.00 | 0.00 | 0.00 | 73 | 1020.6 |
| 20260506161018 | 61 | 243 | 2.0 | 8.0 | 0.00 | 0.00 | 0.00 | 74 | 1020.5 |
| 20260506160522 | 61 | 232 | 4.0 | 8.0 | 0.00 | 0.00 | 0.00 | 73 | 1020.5 |
| 20260506160034 | 61 | 316 | 3.0 | 8.0 | 0.00 | 0.00 | 0.00 | 74 | 1020.4 |
| 20260506155522 | 60 | 246 | 1.0 | 8.0 | 0.00 | 0.00 | 0.00 | 76 | 1020.6 |
| 20260506155021 | 60 | 268 | 3.0 | 8.0 | 0.00 | 0.00 | 0.00 | 75 | 1020.6 |
| 20260506154550 | 59 | 106 | 2.0 | 6.0 | 0.00 | 0.00 | 0.00 | 76 | 1020.5 |
| 20260506154021 | 59 | 251 | 2.0 | 6.0 | 0.00 | 0.00 | 0.00 | 76 | 1020.6 |
| 20260506153521 | 59 | 206 | 2.0 | 7.0 | 0.00 | 0.00 | 0.00 | 77 | 1020.5 |
| 20260506153050 | 59 | 325 | 1.0 | 7.0 | 0.00 | 0.00 | 0.00 | 78 | 1020.5 |
| 20260506152520 | 58 | 280 | 3.0 | 6.0 | 0.00 | 0.00 | 0.00 | 78 | 1020.6 |
| 20260506152023 | 58 | 180 | 2.0 | 5.0 | 0.00 | 0.00 | 0.00 | 78 | 1020.6 |
| 20260506151536 | 58 | 274 | 1.0 | 5.0 | 0.00 | 0.00 | 0.00 | 79 | 1020.5 |
| 20260506151021 | 58 | 300 | 0.0 | 7.0 | 0.00 | 0.00 | 0.00 | 79 | 1020.7 |
| 20260506150520 | 58 | 183 | 2.0 | 7.0 | 0.00 | 0.00 | 0.00 | 79 | 1020.4 |
| 20260506150035 | 58 | 279 | 0.0 | 5.0 | 0.00 | 0.00 | 0.00 | 80 | 1020.4 |
| 20260506145525 | 57 | 227 | 2.0 | 4.0 | 0.00 | 0.00 | 0.00 | 80 | 1020.5 |
| 20260506145020 | 57 | 244 | 1.0 | 4.0 | 0.00 | 0.00 | 0.00 | 81 | 1020.4 |
| 20260506144535 | 57 | 90 | 0.0 | 3.0 | 0.00 | 0.00 | 0.00 | 81 | 1020.4 |
| 20260506144020 | 57 | 285 | 1.0 | 3.0 | 0.00 | 0.00 | 0.00 | 81 | 1020.4 |
| 20260506143524 | 57 | 277 | 1.0 | 4.0 | 0.00 | 0.00 | 0.00 | 81 | 1020.4 |
| 20260506143056 | 57 | 304 | 1.0 | 4.0 | 0.00 | 0.00 | 0.00 | 81 | 1020.4 |
| 20260506142519 | 57 | 267 | 2.0 | 6.0 | 0.00 | 0.00 | 0.00 | 81 | 1020.2 |
| 20260506142020 | 56 | 275 | 0.0 | 6.0 | 0.00 | 0.00 | 0.00 | 81 | 1020.2 |
| 20260506141541 | 56 | 163 | 2.0 | 6.0 | 0.00 | 0.00 | 0.00 | 81 | 1020.2 |
| 20260506141020 | 56 | 265 | 1.0 | 4.0 | 0.00 | 0.00 | 0.00 | 81 | 1020.3 |
| 20260506140523 | 56 | 295 | 2.0 | 4.0 | 0.00 | 0.00 | 0.00 | 81 | 1020.2 |
| 20260506140038 | 56 | 282 | 1.0 | 4.0 | 0.00 | 0.00 | 0.00 | 81 | 1020.0 |
| 20260506135522 | 56 | 283 | 1.0 | 4.0 | 0.00 | 0.00 | 0.00 | 81 | 1020.0 |
| 20260506135023 | 56 | 291 | 1.0 | 4.0 | 0.00 | 0.00 | 0.00 | 81 | 1020.0 |
| 20260506134536 | 56 | 0 | 1.0 | 5.0 | 0.00 | 0.00 | 0.00 | 81 | 1020.0 |
| 20260506134022 | 56 | 299 | 1.0 | 5.0 | 0.00 | 0.00 | 0.00 | 81 | 1019.9 |
| 20260506133520 | 56 | 304 | 2.0 | 5.0 | 0.00 | 0.00 | 0.00 | 81 | 1019.8 |
| 20260506133037 | 56 | 265 | 2.0 | 5.0 | 0.00 | 0.00 | 0.00 | 81 | 1019.7 |
| 20260506132518 | 56 | 327 | 1.0 | 4.0 | 0.00 | 0.00 | 0.00 | 81 | 1019.9 |
| 20260506132019 | 56 | 267 | 1.0 | 4.0 | 0.00 | 0.00 | 0.00 | 81 | 1019.8 |
| 20260506131535 | 56 | 0 | 1.0 | 5.0 | 0.00 | 0.00 | 0.00 | 81 | 1019.8 |
| 20260506131023 | 56 | 232 | 2.0 | 5.0 | 0.00 | 0.00 | 0.00 | 81 | 1019.7 |
| 20260506130521 | 56 | 291 | 0.0 | 4.0 | 0.00 | 0.00 | 0.00 | 81 | 1019.6 |
| 20260506130039 | 56 | 291 | 0.0 | 4.0 | 0.00 | 0.00 | 0.00 | 81 | 1019.7 |
| 20260506125520 | 56 | 222 | 0.0 | 5.0 | 0.00 | 0.00 | 0.00 | 81 | 1019.7 |
| 20260506125020 | 56 | 205 | 1.0 | 6.0 | 0.00 | 0.00 | 0.00 | 80 | 1019.6 |
| 20260506124540 | 56 | 289 | 1.0 | 6.0 | 0.00 | 0.00 | 0.00 | 80 | 1019.6 |
| 20260506124020 | 56 | 247 | 2.0 | 6.0 | 0.00 | 0.00 | 0.00 | 80 | 1019.5 |
| 20260506123520 | 56 | 239 | 2.0 | 6.0 | 0.00 | 0.00 | 0.00 | 80 | 1019.6 |
| 20260506123037 | 56 | 249 | 1.0 | 6.0 | 0.00 | 0.00 | 0.00 | 80 | 1019.5 |
| 20260506122523 | 56 | 242 | 1.0 | 6.0 | 0.00 | 0.00 | 0.00 | 80 | 1019.6 |
| 20260506122021 | 56 | 246 | 2.0 | 6.0 | 0.00 | 0.00 | 0.00 | 80 | 1019.5 |
| 20260506121541 | 56 | 238 | 2.0 | 6.0 | 0.00 | 0.00 | 0.00 | 80 | 1019.5 |
| 20260506121021 | 56 | 232 | 1.0 | 4.0 | 0.00 | 0.00 | 0.00 | 81 | 1019.5 |
| 20260506120521 | 56 | 249 | 0.0 | 5.0 | 0.00 | 0.00 | 0.00 | 80 | 1019.5 |
| 20260506120035 | 56 | 237 | 2.0 | 5.0 | 0.00 | 0.00 | 0.00 | 80 | 1019.5 |
| 20260506115520 | 56 | 207 | 2.0 | 6.0 | 0.00 | 0.00 | 0.00 | 80 | 1019.4 |
| 20260506115021 | 56 | 251 | 1.0 | 6.0 | 0.00 | 0.00 | 0.00 | 80 | 1019.4 |
| 20260506114547 | 56 | 222 | 1.0 | 6.0 | 0.00 | 0.00 | 0.00 | 80 | 1019.3 |
| 20260506114021 | 56 | 236 | 1.0 | 5.0 | 0.00 | 0.00 | 0.00 | 80 | 1019.4 |
| 20260506113520 | 56 | 279 | 1.0 | 5.0 | 0.00 | 0.00 | 0.00 | 80 | 1019.3 |
| 20260506113040 | 56 | 251 | 2.0 | 5.0 | 0.00 | 0.00 | 0.00 | 80 | 1019.2 |
| 20260506112523 | 56 | 247 | 2.0 | 6.0 | 0.00 | 0.00 | 0.00 | 81 | 1019.3 |
| 20260506112023 | 56 | 227 | 2.0 | 6.0 | 0.00 | 0.00 | 0.00 | 80 | 1019.2 |
| 20260506111539 | 56 | 322 | 2.0 | 4.0 | 0.00 | 0.00 | 0.00 | 81 | 1019.2 |
| 20260506111022 | 56 | 279 | 1.0 | 4.0 | 0.00 | 0.00 | 0.00 | 80 | 1019.2 |
| 20260506110523 | 56 | 229 | 2.0 | 4.0 | 0.00 | 0.00 | 0.00 | 80 | 1019.2 |
| 20260506110036 | 56 | 247 | 1.0 | 3.0 | 0.00 | 0.00 | 0.00 | 81 | 1019.1 |
| 20260506105520 | 56 | 301 | 1.0 | 3.0 | 0.00 | 0.00 | 0.00 | 81 | 1019.2 |
| 20260506105021 | 56 | 253 | 1.0 | 4.0 | 0.00 | 0.00 | 0.00 | 81 | 1019.1 |
| 20260506104535 | 56 | 224 | 2.0 | 4.0 | 0.00 | 0.00 | 0.00 | 81 | 1018.9 |
| 20260506104020 | 56 | 265 | 1.0 | 4.0 | 0.00 | 0.00 | 0.00 | 81 | 1019.1 |
| 20260506103519 | 56 | 241 | 2.0 | 7.0 | 0.00 | 0.00 | 0.00 | 81 | 1019.0 |
| 20260506103040 | 56 | 231 | 1.0 | 7.0 | 0.00 | 0.00 | 0.00 | 81 | 1019.0 |
| 20260506102522 | 56 | 268 | 3.0 | 7.0 | 0.00 | 0.00 | 0.00 | 81 | 1018.9 |
| 20260506102021 | 56 | 193 | 1.0 | 8.0 | 0.00 | 0.00 | 0.00 | 81 | 1018.9 |
| 20260506101542 | 56 | 257 | 3.0 | 8.0 | 0.00 | 0.00 | 0.00 | 81 | 1018.9 |
| 20260506101020 | 56 | 266 | 3.0 | 7.0 | 0.00 | 0.00 | 0.00 | 81 | 1018.9 |
| 20260506100520 | 56 | 241 | 3.0 | 8.0 | 0.00 | 0.00 | 0.00 | 81 | 1018.9 |
| 20260506100240 | 56 | 208 | 3.0 | 8.0 | 0.00 | 0.00 | 0.00 | 81 | 1018.9 |
| 20260506095519 | 56 | 237 | 2.0 | 5.0 | 0.00 | 0.00 | 0.00 | 81 | 1018.9 |
| 20260506095022 | 56 | 232 | 1.0 | 4.0 | 0.00 | 0.00 | 0.00 | 81 | 1018.9 |
| 20260506094548 | 56 | 239 | 1.0 | 6.0 | 0.00 | 0.00 | 0.00 | 81 | 1018.9 |
| 20260506094019 | 56 | 318 | 2.0 | 6.0 | 0.00 | 0.00 | 0.00 | 81 | 1018.8 |
| 20260506093520 | 56 | 236 | 2.0 | 6.0 | 0.00 | 0.00 | 0.00 | 81 | 1018.8 |
| 20260506093036 | 56 | 270 | 2.0 | 8.0 | 0.00 | 0.00 | 0.00 | 81 | 1018.7 |
| 20260506092522 | 56 | 247 | 2.0 | 8.0 | 0.00 | 0.00 | 0.00 | 81 | 1018.7 |
| 20260506092021 | 56 | 250 | 2.0 | 6.0 | 0.00 | 0.00 | 0.00 | 81 | 1018.9 |
| 20260506091538 | 56 | 240 | 2.0 | 6.0 | 0.00 | 0.00 | 0.00 | 81 | 1018.8 |
| 20260506091020 | 56 | 218 | 3.0 | 6.0 | 0.00 | 0.00 | 0.00 | 82 | 1018.8 |
| 20260506090521 | 56 | 235 | 2.0 | 6.0 | 0.00 | 0.00 | 0.00 | 82 | 1018.9 |
| 20260506090038 | 56 | 229 | 2.0 | 6.0 | 0.00 | 0.00 | 0.00 | 82 | 1019.0 |
| 20260506085520 | 56 | 265 | 2.0 | 6.0 | 0.00 | 0.04 | 0.00 | 82 | 1018.9 |
| 20260506085020 | 56 | 259 | 2.0 | 6.0 | 0.00 | 0.04 | 0.00 | 82 | 1018.9 |
| 20260506084538 | 56 | 253 | 2.0 | 6.0 | 0.00 | 0.04 | 0.00 | 82 | 1018.9 |
| 20260506084020 | 56 | 210 | 2.0 | 6.0 | 0.00 | 0.04 | 0.00 | 82 | 1018.9 |
| 20260506083520 | 56 | 234 | 1.0 | 5.0 | 0.00 | 0.04 | 0.00 | 82 | 1018.8 |
| 20260506083038 | 56 | 303 | 1.0 | 5.0 | 0.00 | 0.04 | 0.00 | 82 | 1018.9 |
| 20260506082520 | 55 | 232 | 2.0 | 5.0 | 0.00 | 0.04 | 0.00 | 82 | 1018.8 |
| 20260506082020 | 55 | 241 | 2.0 | 6.0 | 0.00 | 0.04 | 0.00 | 82 | 1018.9 |
| 20260506081538 | 55 | 235 | 1.0 | 6.0 | 0.00 | 0.04 | 0.00 | 82 | 1018.9 |
| 20260506081020 | 55 | 236 | 3.0 | 6.0 | 0.00 | 0.04 | 0.00 | 82 | 1018.8 |
| 20260506080521 | 55 | 244 | 3.0 | 6.0 | 0.00 | 0.04 | 0.00 | 82 | 1018.8 |
| 20260506073524 | 55 | 303 | 1.0 | 6.0 | 0.00 | 0.11 | 0.00 | 83 | 1018.6 |
| 20260506073045 | 55 | 244 | 2.0 | 6.0 | 0.00 | 0.11 | 0.00 | 83 | 1018.5 |
| 20260506072520 | 55 | 170 | 1.0 | 6.0 | 0.00 | 0.11 | 0.00 | 83 | 1018.5 |
| 20260506072021 | 55 | 235 | 1.0 | 4.0 | 0.00 | 0.11 | 0.00 | 83 | 1018.5 |
| 20260506071540 | 55 | 233 | 1.0 | 5.0 | 0.00 | 0.11 | 0.00 | 83 | 1018.5 |
| 20260506071020 | 55 | 288 | 1.0 | 6.0 | 0.00 | 0.11 | 0.00 | 83 | 1018.5 |
| 20260506070520 | 55 | 249 | 2.0 | 6.0 | 0.00 | 0.11 | 0.00 | 83 | 1018.3 |
| 20260506062019 | 55 | 270 | 2.0 | 6.0 | 0.00 | 0.16 | 0.11 | 82 | 1018.1 |
| 20260506061538 | 55 | 232 | 3.0 | 6.0 | 0.00 | 0.16 | 0.11 | 81 | 1018.1 |
| 20260506061019 | 55 | 245 | 2.0 | 6.0 | 0.00 | 0.16 | 0.11 | 81 | 1018.0 |
| 20260506060520 | 56 | 250 | 1.0 | 8.0 | 0.00 | 0.16 | 0.11 | 81 | 1018.0 |
| 20260506051018 | 56 | 203 | 2.0 | 8.0 | 0.00 | 0.20 | 0.11 | 79 | 1017.6 |
| 20260506050523 | 57 | 265 | 3.0 | 8.0 | 0.00 | 0.20 | 0.11 | 79 | 1017.4 |
| 20260506045020 | 57 | 301 | 2.0 | 8.0 | 0.00 | 0.30 | 0.11 | 78 | 1017.4 |
| 20260506044544 | 57 | 293 | 3.0 | 7.0 | 0.00 | 0.30 | 0.11 | 77 | 1017.3 |
| 20260506044021 | 58 | 291 | 2.0 | 7.0 | 0.00 | 0.30 | 0.11 | 77 | 1017.3 |
| 20260506043520 | 58 | 253 | 3.0 | 7.0 | 0.00 | 0.30 | 0.11 | 77 | 1017.2 |
| 20260506043036 | 58 | 219 | 2.0 | 5.0 | 0.00 | 0.30 | 0.11 | 76 | 1017.1 |
| 20260506042521 | 58 | 274 | 2.0 | 7.0 | 0.00 | 0.30 | 0.11 | 76 | 1017.1 |
| 20260506042023 | 58 | 241 | 2.0 | 8.0 | 0.00 | 0.30 | 0.11 | 76 | 1017.0 |
| 20260506041539 | 58 | 223 | 3.0 | 8.0 | 0.00 | 0.30 | 0.11 | 76 | 1016.9 |
| 20260506041018 | 58 | 272 | 3.0 | 6.0 | 0.00 | 0.30 | 0.11 | 76 | 1016.9 |
| 20260506040520 | 59 | 255 | 2.0 | 6.0 | 0.00 | 0.30 | 0.11 | 75 | 1016.8 |
| 20260506040057 | 59 | 237 | 2.0 | 6.0 | 0.00 | 0.30 | 0.11 | 75 | 1016.7 |
| 20260506035522 | 59 | 236 | 3.0 | 7.0 | 0.00 | 0.30 | 0.11 | 75 | 1016.7 |
| 20260506035019 | 59 | 247 | 3.0 | 7.0 | 0.00 | 0.30 | 0.11 | 75 | 1016.7 |
| 20260506034538 | 59 | 253 | 3.0 | 7.0 | 0.00 | 0.30 | 0.11 | 75 | 1016.6 |
| 20260506034022 | 59 | 203 | 3.0 | 9.0 | 0.00 | 0.30 | 0.11 | 74 | 1016.5 |
| 20260506033520 | 59 | 234 | 2.0 | 9.0 | 0.00 | 0.30 | 0.11 | 74 | 1016.6 |
| 20260506033037 | 59 | 215 | 4.0 | 9.0 | 0.00 | 0.30 | 0.11 | 73 | 1016.5 |
| 20260506032520 | 59 | 227 | 2.0 | 10.0 | 0.00 | 0.30 | 0.11 | 73 | 1016.3 |
| 20260506032020 | 59 | 250 | 4.0 | 10.0 | 0.00 | 0.30 | 0.11 | 73 | 1016.1 |
| 20260506031553 | 59 | 217 | 5.0 | 10.0 | 0.00 | 0.30 | 0.11 | 73 | 1016.0 |
| 20260506031022 | 60 | 317 | 2.0 | 8.0 | 0.00 | 0.30 | 0.11 | 73 | 1016.1 |
| 20260506030522 | 60 | 234 | 2.0 | 14.0 | 0.00 | 0.30 | 0.11 | 73 | 1015.9 |
| 20260506030034 | 60 | 213 | 4.0 | 14.0 | 0.00 | 0.30 | 0.11 | 72 | 1015.9 |
| 20260506025520 | 60 | 255 | 4.0 | 8.0 | 0.00 | 0.30 | 0.11 | 72 | 1016.0 |
| 20260506025021 | 60 | 224 | 3.0 | 9.0 | 0.00 | 0.30 | 0.11 | 72 | 1015.9 |
| 20260506024534 | 60 | 274 | 4.0 | 10.0 | 0.00 | 0.30 | 0.11 | 72 | 1015.8 |
| 20260506024021 | 60 | 255 | 4.0 | 12.0 | 0.00 | 0.30 | 0.11 | 72 | 1015.9 |
| 20260506023520 | 60 | 258 | 3.0 | 12.0 | 0.00 | 0.30 | 0.11 | 72 | 1015.7 |
| 20260506023038 | 61 | 235 | 3.0 | 10.0 | 0.00 | 0.30 | 0.11 | 72 | 1015.7 |
| 20260506022520 | 61 | 208 | 4.0 | 10.0 | 0.00 | 0.30 | 0.11 | 72 | 1015.5 |
| 20260506022020 | 61 | 222 | 3.0 | 9.0 | 0.00 | 0.30 | 0.11 | 72 | 1015.5 |
| 20260506021536 | 61 | 305 | 3.0 | 8.0 | 0.00 | 0.30 | 0.11 | 72 | 1015.6 |
| 20260506021022 | 61 | 215 | 2.0 | 8.0 | 0.00 | 0.30 | 0.11 | 72 | 1015.5 |
| 20260506020520 | 61 | 261 | 3.0 | 7.0 | 0.00 | 0.30 | 0.11 | 72 | 1015.5 |
| 20260506020034 | 61 | 256 | 4.0 | 8.0 | 0.00 | 0.30 | 0.11 | 72 | 1015.4 |
| 20260506015521 | 62 | 250 | 3.0 | 8.0 | 0.00 | 0.30 | 0.11 | 72 | 1015.4 |
| 20260506015021 | 62 | 278 | 2.0 | 10.0 | 0.00 | 0.30 | 0.11 | 72 | 1015.3 |
| 20260506014541 | 62 | 262 | 3.0 | 10.0 | 0.00 | 0.30 | 0.11 | 72 | 1015.2 |
| 20260506014020 | 62 | 254 | 4.0 | 10.0 | 0.00 | 0.30 | 0.11 | 71 | 1015.2 |
| 20260506013520 | 63 | 258 | 6.0 | 10.0 | 0.00 | 0.30 | 0.11 | 71 | 1015.1 |
| 20260506013044 | 63 | 262 | 5.0 | 10.0 | 0.00 | 0.30 | 0.11 | 71 | 1015.0 |
| 20260506012520 | 63 | 203 | 4.0 | 9.0 | 0.00 | 0.30 | 0.11 | 71 | 1015.0 |
| 20260506012022 | 63 | 269 | 3.0 | 10.0 | 0.00 | 0.30 | 0.11 | 71 | 1015.0 |
| 20260506011538 | 63 | 212 | 4.0 | 10.0 | 0.00 | 0.30 | 0.11 | 70 | 1014.9 |
| 20260506011020 | 63 | 175 | 5.0 | 10.0 | 0.00 | 0.30 | 0.11 | 70 | 1014.9 |
| 20260506010522 | 63 | 272 | 4.0 | 10.0 | 0.00 | 0.30 | 0.11 | 70 | 1015.0 |
| 20260506010041 | 63 | 208 | 3.0 | 8.0 | 0.00 | 0.30 | 0.11 | 70 | 1014.9 |
| 20260506005521 | 64 | 265 | 2.0 | 10.0 | 0.00 | 0.30 | 0.11 | 70 | 1015.0 |
| 20260506005020 | 64 | 229 | 4.0 | 10.0 | 0.00 | 0.30 | 0.11 | 70 | 1014.9 |
| 20260506004537 | 64 | 225 | 4.0 | 9.0 | 0.00 | 0.30 | 0.11 | 69 | 1014.9 |
| 20260506004022 | 64 | 187 | 2.0 | 9.0 | 0.00 | 0.30 | 0.11 | 69 | 1014.9 |
| 20260506003521 | 64 | 253 | 2.0 | 9.0 | 0.00 | 0.30 | 0.11 | 69 | 1014.9 |
| 20260506003038 | 64 | 228 | 3.0 | 9.0 | 0.00 | 0.30 | 0.11 | 68 | 1014.8 |
| 20260506002521 | 65 | 236 | 5.0 | 13.0 | 0.00 | 0.30 | 0.11 | 67 | 1014.7 |
| 20260506002020 | 65 | 189 | 3.0 | 13.0 | 0.00 | 0.30 | 0.11 | 66 | 1014.8 |
| 20260506001537 | 66 | 238 | 3.0 | 13.0 | 0.00 | 0.30 | 0.11 | 66 | 1014.8 |
| 20260506001020 | 65 | 258 | 5.0 | 13.0 | 0.00 | 0.30 | 0.11 | 67 | 1014.7 |
| 20260506000521 | 65 | 232 | 4.0 | 9.0 | 0.00 | 0.30 | 0.11 | 67 | 1014.8 |
| 20260506000035 | 65 | 218 | 5.0 | 11.0 | 0.00 | 0.30 | 0.11 | 66 | 1014.8 |
| 20260505235521 | 65 | 262 | 3.0 | 11.0 | 0.00 | 0.30 | 0.11 | 67 | 1014.8 |
| 20260505235022 | 65 | 245 | 4.0 | 11.0 | 0.00 | 0.30 | 0.11 | 67 | 1014.8 |
| 20260505234539 | 65 | 227 | 5.0 | 12.0 | 0.00 | 0.30 | 0.11 | 67 | 1014.9 |
| 20260505234021 | 65 | 223 | 4.0 | 12.0 | 0.00 | 0.30 | 0.11 | 67 | 1014.9 |
| 20260505233520 | 66 | 255 | 3.0 | 10.0 | 0.00 | 0.30 | 0.11 | 67 | 1014.9 |
| 20260505233042 | 65 | 75 | 4.0 | 10.0 | 0.00 | 0.30 | 0.11 | 68 | 1015.0 |
| 20260505232520 | 64 | 236 | 5.0 | 10.0 | 0.00 | 0.30 | 0.11 | 70 | 1015.0 |
| 20260505232022 | 64 | 246 | 6.0 | 10.0 | 0.00 | 0.30 | 0.11 | 69 | 1015.1 |
| 20260505231545 | 64 | 310 | 4.0 | 9.0 | 0.00 | 0.30 | 0.11 | 70 | 1015.1 |
| 20260505231021 | 64 | 276 | 1.0 | 8.0 | 0.00 | 0.30 | 0.11 | 71 | 1015.2 |
| 20260505230521 | 63 | 241 | 2.0 | 8.0 | 0.00 | 0.30 | 0.11 | 71 | 1015.2 |
| 20260505230036 | 63 | 215 | 5.0 | 7.0 | 0.00 | 0.30 | 0.11 | 70 | 1015.2 |
| 20260505225527 | 63 | 253 | 3.0 | 7.0 | 0.00 | 0.30 | 0.11 | 71 | 1015.2 |
| 20260505225020 | 63 | 278 | 2.0 | 7.0 | 0.00 | 0.30 | 0.11 | 70 | 1015.2 |
| 20260505224536 | 63 | 272 | 3.0 | 7.0 | 0.00 | 0.30 | 0.11 | 71 | 1015.2 |
| 20260505224021 | 63 | 251 | 3.0 | 10.0 | 0.00 | 0.30 | 0.11 | 70 | 1015.3 |
| 20260505223525 | 64 | 248 | 4.0 | 10.0 | 0.00 | 0.30 | 0.11 | 70 | 1015.3 |
| 20260505223050 | 64 | 267 | 4.0 | 10.0 | 0.00 | 0.30 | 0.11 | 69 | 1015.3 |
| 20260505222520 | 64 | 233 | 2.0 | 8.0 | 0.00 | 0.30 | 0.11 | 69 | 1015.3 |
| 20260505222020 | 65 | 220 | 4.0 | 8.0 | 0.00 | 0.30 | 0.11 | 68 | 1015.3 |
| 20260505221541 | 65 | 0 | 1.0 | 4.0 | 0.00 | 0.30 | 0.11 | 69 | 1015.3 |
| 20260505221022 | 65 | 106 | 2.0 | 5.0 | 0.00 | 0.30 | 0.11 | 69 | 1015.4 |
| 20260505220520 | 64 | 296 | 1.0 | 6.0 | 0.00 | 0.30 | 0.11 | 70 | 1015.3 |
| 20260505220041 | 64 | 241 | 2.0 | 8.0 | 0.00 | 0.30 | 0.11 | 70 | 1015.4 |
| 20260505215521 | 64 | 246 | 3.0 | 8.0 | 0.00 | 0.30 | 0.11 | 70 | 1015.4 |
| 20260505215020 | 64 | 244 | 3.0 | 7.0 | 0.00 | 0.30 | 0.11 | 70 | 1015.4 |
| 20260505214546 | 64 | 245 | 3.0 | 8.0 | 0.00 | 0.30 | 0.11 | 71 | 1015.4 |
| 20260505214024 | 63 | 250 | 1.0 | 8.0 | 0.00 | 0.30 | 0.11 | 71 | 1015.5 |
| 20260505213520 | 63 | 246 | 3.0 | 6.0 | 0.00 | 0.30 | 0.11 | 71 | 1015.5 |
| 20260505213043 | 63 | 238 | 2.0 | 6.0 | 0.00 | 0.30 | 0.11 | 71 | 1015.6 |
| 20260505212520 | 63 | 215 | 1.0 | 5.0 | 0.00 | 0.30 | 0.11 | 71 | 1015.6 |
| 20260505212020 | 63 | 212 | 1.0 | 5.0 | 0.00 | 0.30 | 0.11 | 71 | 1015.7 |
| 20260505211537 | 63 | 0 | 0.0 | 2.0 | 0.00 | 0.30 | 0.11 | 71 | 1015.7 |
| 20260505211021 | 63 | 263 | 0.0 | 3.0 | 0.00 | 0.30 | 0.11 | 71 | 1015.6 |
| 20260505210521 | 63 | 263 | 1.0 | 3.0 | 0.00 | 0.30 | 0.11 | 70 | 1015.6 |
| 20260505210038 | 63 | 244 | 1.0 | 5.0 | 0.00 | 0.30 | 0.11 | 70 | 1015.6 |
| 20260505205520 | 63 | 327 | 1.0 | 6.0 | 0.00 | 0.30 | 0.11 | 70 | 1015.6 |
| 20260505205020 | 63 | 286 | 2.0 | 6.0 | 0.00 | 0.30 | 0.11 | 70 | 1015.6 |
| 20260505204539 | 63 | 236 | 2.0 | 7.0 | 0.00 | 0.30 | 0.11 | 70 | 1015.7 |
| 20260505204021 | 64 | 253 | 1.0 | 7.0 | 0.00 | 0.30 | 0.11 | 69 | 1015.7 |
| 20260505203521 | 64 | 287 | 3.0 | 6.0 | 0.00 | 0.30 | 0.11 | 68 | 1015.7 |
| 20260505203037 | 64 | 290 | 2.0 | 6.0 | 0.00 | 0.30 | 0.11 | 69 | 1015.6 |
| 20260505202521 | 64 | 258 | 2.0 | 6.0 | 0.00 | 0.30 | 0.11 | 69 | 1015.7 |
| 20260505202021 | 63 | 284 | 3.0 | 6.0 | 0.00 | 0.30 | 0.11 | 69 | 1015.7 |
| 20260505201545 | 63 | 218 | 3.0 | 6.0 | 0.00 | 0.30 | 0.11 | 70 | 1015.7 |
| 20260505201020 | 63 | 286 | 3.0 | 6.0 | 0.00 | 0.30 | 0.11 | 71 | 1015.7 |
| 20260505200522 | 63 | 232 | 2.0 | 6.0 | 0.00 | 0.30 | 0.11 | 71 | 1015.7 |
| 20260505200041 | 63 | 284 | 2.0 | 6.0 | 0.00 | 0.30 | 0.11 | 71 | 1015.8 |
| 20260505195523 | 63 | 233 | 2.0 | 5.0 | 0.00 | 0.30 | 0.11 | 71 | 1015.9 |
| 20260505195021 | 63 | 267 | 1.0 | 7.0 | 0.00 | 0.30 | 0.11 | 71 | 1016.0 |
| 20260505194538 | 63 | 253 | 2.0 | 7.0 | 0.00 | 0.30 | 0.11 | 70 | 1015.9 |
| 20260505194021 | 63 | 282 | 3.0 | 6.0 | 0.00 | 0.30 | 0.11 | 70 | 1015.9 |
| 20260505193521 | 63 | 285 | 2.0 | 7.0 | 0.00 | 0.30 | 0.11 | 69 | 1016.0 |
| 20260505193041 | 63 | 265 | 2.0 | 9.0 | 0.00 | 0.30 | 0.11 | 70 | 1015.8 |
| 20260505192524 | 64 | 276 | 2.0 | 9.0 | 0.00 | 0.30 | 0.11 | 70 | 1016.0 |
| 20260505192020 | 63 | 303 | 3.0 | 9.0 | 0.00 | 0.30 | 0.11 | 71 | 1015.9 |
| 20260505191541 | 63 | 266 | 4.0 | 9.0 | 0.00 | 0.30 | 0.11 | 70 | 1015.9 |
| 20260505191021 | 63 | 234 | 2.0 | 7.0 | 0.00 | 0.30 | 0.11 | 70 | 1015.8 |
| 20260505190520 | 63 | 291 | 3.0 | 9.0 | 0.00 | 0.30 | 0.11 | 71 | 1015.9 |
| 20260505190039 | 62 | 319 | 4.0 | 9.0 | 0.00 | 0.30 | 0.11 | 72 | 1015.8 |
| 20260505185522 | 62 | 277 | 3.0 | 8.0 | 0.00 | 0.30 | 0.11 | 73 | 1015.9 |
| 20260505185021 | 62 | 298 | 3.0 | 8.0 | 0.00 | 0.30 | 0.11 | 74 | 1015.9 |
| 20260505184536 | 61 | 304 | 4.0 | 10.0 | 0.00 | 0.30 | 0.11 | 74 | 1015.8 |
| 20260505184021 | 61 | 130 | 3.0 | 10.0 | 0.00 | 0.30 | 0.11 | 75 | 1015.9 |
| 20260505183520 | 61 | 289 | 4.0 | 10.0 | 0.00 | 0.30 | 0.11 | 75 | 1015.9 |
| 20260505183042 | 60 | 247 | 3.0 | 7.0 | 0.00 | 0.30 | 0.11 | 77 | 1015.8 |
| 20260505182520 | 60 | 297 | 2.0 | 8.0 | 0.00 | 0.30 | 0.11 | 77 | 1015.9 |
| 20260505182022 | 60 | 279 | 3.0 | 10.0 | 0.00 | 0.30 | 0.11 | 78 | 1015.9 |
| 20260505181545 | 60 | 330 | 3.0 | 10.0 | 0.00 | 0.30 | 0.11 | 77 | 1015.9 |
| 20260505181021 | 60 | 210 | 3.0 | 10.0 | 0.00 | 0.30 | 0.11 | 78 | 1015.8 |
| 20260505180521 | 60 | 258 | 2.0 | 7.0 | 0.00 | 0.30 | 0.11 | 79 | 1015.9 |
| 20260505180040 | 60 | 281 | 2.0 | 7.0 | 0.00 | 0.30 | 0.11 | 80 | 1015.8 |
| 20260505175520 | 60 | 232 | 4.0 | 8.0 | 0.00 | 0.30 | 0.11 | 79 | 1015.8 |
| 20260505175021 | 60 | 320 | 2.0 | 8.0 | 0.00 | 0.30 | 0.11 | 82 | 1015.7 |
| 20260505174541 | 59 | 245 | 3.0 | 7.0 | 0.00 | 0.30 | 0.11 | 81 | 1015.7 |
| 20260505174021 | 59 | 243 | 1.0 | 7.0 | 0.00 | 0.30 | 0.11 | 85 | 1015.6 |
| 20260505173521 | 58 | 241 | 2.0 | 8.0 | 0.00 | 0.30 | 0.11 | 85 | 1015.5 |
| 20260505173042 | 58 | 288 | 2.0 | 8.0 | 0.00 | 0.30 | 0.11 | 86 | 1015.5 |
| 20260505172520 | 57 | 212 | 2.0 | 8.0 | 0.00 | 0.30 | 0.11 | 87 | 1015.4 |
| 20260505172021 | 57 | 291 | 2.0 | 8.0 | 0.00 | 0.30 | 0.11 | 88 | 1015.5 |
| 20260505171541 | 56 | 232 | 2.0 | 6.0 | 0.00 | 0.30 | 0.11 | 89 | 1015.5 |